Simultaneous Nadir Overpasses (SNOs) Predictions

Prediction of SNOs between GOES-15 and TERRA Satellite Orbit:

Table of predicted SNOs for the next 14.0 days since TLE Epoch: 2/19/2022
Index Date Time (GOES-15) GOES-15 Lat,Lon TERRA Lat,Lon Distance(km) Time Diff (sec)
1 02/19/2022 06:52:07 -0.02,-127.86 0.16,-127.07 89.18 80
2 02/19/2022 19:10:42 0.01,-127.88 0.91,-132.24 494.68 80
3 02/21/2022 06:39:51 -0.02,-127.79 0.75,-124.11 418.85 80
4 02/21/2022 18:58:26 0.02,-127.82 0.31,-129.27 165.17 80
5 02/23/2022 18:48:50 0.02,-127.74 -0.29,-126.30 163.41 80
6 02/24/2022 07:07:33 -0.01,-127.68 -0.82,-131.50 433.44 80
7 02/25/2022 18:36:34 0.01,-127.66 -0.89,-123.34 491.18 80
8 02/26/2022 06:55:17 -0.01,-127.60 -0.21,-128.53 105.85 80
9 02/28/2022 06:45:41 -0.02,-127.51 0.40,-125.57 221.54 80
10 02/28/2022 19:04:15 0.01,-127.53 0.72,-130.72 363.21 80
11 03/02/2022 18:51:59 0.02,-127.44 0.10,-127.75 35.62 80
12 03/04/2022 18:42:23 0.02,-127.36 -0.53,-124.79 292.02 80
